Wind_Speed
9 9 9 8 7 7 7 7 7 7 6 7 7 8 9 10 11 12 11 12 12 13 13 13 12 12 12 12 12 11 11 12 11 10 9 8 8 8 7 6 6 5 5
9 9 8 7 7 7 6 7 7 7 7 7 7 8 9 10 10 11 11 11 11 12 12 12 12 12 12 12 11 10 10 10 10 9 8 7 8 7 7 6 5 5 5
10 10 9 8 7 7 6 6 6 6 6 7 8 8 8 9 10 11 11 11 11 12 12 12 11 11 11 11 10 9 9 9 9 8 7 7 6 6 6 5 5 5 5
11 10 9 8 7 7 6 5 5 6 6 7 8 8 8 9 9 10 11 11 10 10 11 11 10 10 10 10 9 9 8 8 8 7 6 6 6 6 5 4 5 6 5
11 10 9 9 8 7 6 6 6 6 7 7 7 7 8 8 9 9 10 10 10 10 10 9 9 9 10 10 9 8 8 8 7 6 6 5 5 4 4 4 4 5 5
10 10 9 8 7 7 6 6 6 6 7 7 7 7 7 8 8 9 9 9 9 9 9 8 8 8 8 8 8 7 7 6 6 6 5 4 4 4 3 3 4 4 4
10 9 9 8 7 7 6 6 6 7 7 7 7 7 7 7 7 7 8 8 8 8 8 8 7 6 7 7 7 6 6 5 4 4 4 3 3 3 3 3 3 3 4
10 10 9 8 8 7 7 7 7 7 7 7 7 7 7 7 7 6 6 7 7 8 7 7 6 5 6 5 5 5 5 4 4 4 4 3 2 2 2 2 3 3 4
11 10 10 9 8 7 7 7 7 7 7 7 7 6 7 7 8 7 6 7 7 7 7 6 5 6 6 5 5 5 4 4 3 3 3 2 1 2 2 2 3 3 4
12 11 10 9 8 8 8 8 7 7 7 7 6 6 6 7 7 7 6 6 7 7 6 6 6 6 6 5 5 4 4 3 3 3 2 2 2 2 2 2 2 3 3
11 11 11 10 9 8 8 7 7 7 7 7 6 6 7 7 6 6 6 5 5 5 5 5 5 5 5 5 5 4 3 2 3 2 2 2 2 2 2 2 2 2 3
11 11 11 10 10 9 9 8 8 8 7 7 7 7 7 6 6 5 5 5 4 4 4 5 5 5 5 4 4 4 3 3 3 2 1 1 2 2 2 2 2 2 3
11 11 11 10 9 9 9 9 8 8 7 7 7 7 6 6 5 5 5 4 4 4 5 5 5 5 5 4 4 4 3 2 2 2 2 2 2 2 3 3 3 3 4
11 11 11 11 10 10 10 9 9 8 8 7 7 7 6 6 6 5 4 4 4 4 5 6 5 5 4 3 3 3 2 2 1 1 2 2 2 3 3 3 4 5 5
11 12 12 11 11 10 11 10 9 9 8 8 7 7 7 7 6 5 4 5 4 4 4 4 4 4 3 3 3 2 2 2 2 3 3 3 4 4 4 5 5 5 6
12 12 12 12 11 11 11 10 10 9 8 8 7 7 7 7 6 5 5 4 4 4 4 4 3 3 2 2 3 3 2 2 3 3 4 4 4 4 5 5 5 5 6
12 12 12 12 12 11 10 10 10 9 8 8 8 7 7 6 6 6 6 5 5 4 4 4 3 2 1 1 2 2 2 3 4 3 4 5 5 5 5 5 6 6 7
12 12 12 12 12 11 10 10 10 10 9 9 8 8 8 7 6 5 6 5 4 4 4 3 2 2 1 0 1 1 1 2 3 3 4 5 5 6 6 6 7 8 8
12 12 12 12 12 11 10 10 9 9 9 8 7 7 7 6 6 5 5 4 4 4 4 3 2 1 1 0 1 1 2 3 3 3 4 5 6 6 6 7 8 8 9
11 11 11 11 11 11 10 10 9 8 8 7 7 7 6 6 5 5 5 4 4 4 3 2 1 1 1 1 1 2 2 3 3 4 4 5 6 6 7 7 8 8 9
10 10 10 10 10 10 10 9 9 8 7 7 6 6 6 6 5 5 4 3 3 2 2 1 1 1 1 2 2 3 3 3 3 4 4 5 5 6 6 7 8 9 9
9 8 9 9 8 8 8 8 9 8 8 7 6 6 6 5 4 4 3 2 2 2 1 1 2 2 2 2 3 4 4 4 3 4 5 6 6 6 7 7 8 9 10
8 7 7 8 7 7 8 8 8 8 7 7 7 5 4 4 4 4 3 2 2 2 2 3 3 4 4 3 3 4 4 4 4 5 6 7 7 8 8 9 9 10 10
7 7 7 7 7 6 6 7 7 6 6 6 6 5 4 4 4 4 4 3 2 3 3 4 4 5 5 5 5 5 5 5 5 6 7 8 8 9 9 9 10 10 10
6 6 6 6 6 5 5 5 6 6 6 7 6 6 5 5 5 4 4 4 4 4 5 5 5 6 6 6 6 6 7 7 6 7 8 9 9 9 10 10 10 10 11
4 5 5 5 6 5 6 6 7 7 7 7 7 7 6 5 5 5 5 5 4 4 5 5 6 6 6 6 6 7 8 7 7 8 8 9 9 10 10 10 11 11 12
Wind_Direction
74 77 83 86 84 81 79 77 74 79 88 90 105 120 127 132 131 130 130 132 135 135 134 137 137 138 138 136 136 139 140 137 137 144 149 150 148 152 156 157 159 164 162
73 73 76 81 82 83 85 83 76 78 86 89 104 118 124 131 134 137 137 135 135 136 138 141 138 137 135 131 131 130 135 143 145 144 147 148 149 153 158 163 164 172 171
69 71 72 76 81 84 86 82 77 79 85 92 105 113 119 126 132 135 136 139 140 141 141 140 136 136 135 133 132 129 129 135 142 145 150 151 155 160 163 168 173 180 179
66 68 70 73 79 82 83 82 79 84 90 99 108 113 117 125 129 132 135 139 141 144 144 142 139 140 135 134 132 130 131 134 136 140 148 152 153 160 166 174 177 180 180
65 65 69 71 76 78 80 83 86 87 90 95 106 115 119 125 128 130 134 136 140 147 148 145 144 141 136 137 134 134 136 141 142 143 148 150 152 159 164 166 173 182 184
62 63 63 67 72 76 81 87 92 93 89 90 97 108 118 125 128 131 136 139 142 147 150 149 144 146 141 145 142 140 141 150 151 149 151 150 155 159 161 168 176 189 194
62 61 58 66 69 74 81 87 93 97 94 92 96 103 114 120 127 130 134 141 142 148 149 153 150 150 148 146 146 149 152 157 158 160 163 162 170 177 178 182 190 205 207
63 58 59 67 72 74 83 91 98 99 97 97 102 107 112 115 123 131 135 137 141 144 143 148 151 153 154 149 150 154 153 162 159 160 164 162 178 198 201 203 209 212 212
57 57 62 67 76 81 88 94 98 98 95 96 105 109 111 116 124 128 134 139 143 145 144 143 147 147 151 155 158 160 158 156 164 169 162 174 193 198 211 212 210 223 221
56 58 62 65 76 85 90 93 97 97 95 97 102 111 111 116 124 127 129 139 143 148 149 149 150 148 152 158 164 168 167 167 174 178 179 193 205 219 231 215 213 225 225
57 60 61 65 73 81 89 93 94 94 95 95 97 106 111 120 125 129 129 135 141 145 152 158 156 151 153 160 172 178 171 176 185 181 192 210 216 232 232 217 218 226 233
60 62 65 69 75 78 84 91 92 91 93 90 94 104 110 119 124 131 136 144 143 145 153 162 158 151 153 163 174 182 170 155 172 182 212 251 253 253 250 243 236 238 241
60 62 66 70 72 76 79 83 92 94 91 90 89 91 104 112 116 128 133 140 138 149 150 153 150 150 153 160 167 166 166 171 182 193 246 270 275 265 267 263 254 257 261
60 61 64 68 72 74 77 77 83 89 87 87 84 84 92 100 105 116 127 124 123 139 139 145 149 154 165 166 162 163 172 192 206 216 247 265 276 277 275 276 268 261 262
59 61 63 69 72 73 73 74 80 83 84 82 80 84 91 98 100 107 129 135 136 140 139 139 141 153 164 166 164 171 193 220 238 246 254 263 275 279 280 281 277 274 270
60 62 64 67 71 73 73 74 75 77 80 79 79 80 87 93 95 96 115 131 138 144 141 140 144 148 165 190 206 218 229 243 252 250 262 268 273 279 276 281 279 281 283
61 64 64 64 65 68 70 72 74 74 76 75 72 73 83 93 99 103 116 122 128 135 137 137 134 142 144 177 217 231 244 265 264 260 272 275 274 278 278 280 281 282 281
61 63 65 66 65 68 71 71 71 70 71 72 69 71 79 94 94 98 98 109 113 120 129 125 122 128 122 192 230 236 278 295 291 286 287 286 279 279 278 280 280 279 278
61 60 62 64 66 67 68 67 65 65 65 66 67 70 75 81 87 92 95 96 98 116 122 115 100 111 66 356 285 275 301 304 305 303 296 288 281 281 283 283 283 285 282
59 59 61 64 65 65 65 63 62 63 61 60 63 64 66 71 78 85 91 93 96 106 106 92 58 37 350 313 292 292 307 302 292 296 299 295 286 284 286 289 287 288 287
57 56 58 61 62 62 61 60 60 55 53 55 58 56 54 57 69 70 80 73 69 73 73 63 16 339 295 281 291 296 299 302 306 304 311 310 302 297 288 288 293 295 294
58 57 54 56 58 59 57 55 50 45 46 48 48 50 50 46 50 54 44 30 27 34 29 347 322 316 308 291 299 310 316 312 313 315 314 308 302 299 293 288 290 293 296
52 53 52 48 46 47 47 45 42 40 43 45 44 40 35 28 28 26 16 353 343 321 308 303 304 307 302 302 307 304 303 300 304 309 305 302 302 301 296 292 289 291 295
43 46 43 41 40 40 42 40 35 36 39 39 33 23 20 15 13 359 346 331 310 310 307 301 298 306 299 300 297 296 296 297 300 307 306 302 302 303 299 294 290 291 290
38 36 32 31 32 30 27 25 22 19 20 20 22 17 11 5 358 345 333 321 302 303 307 307 305 303 295 293 293 294 294 298 297 302 305 301 301 302 302 298 295 292 290
23 20 22 17 14 16 11 5 4 3 3 6 6 4 359 359 357 342 326 321 306 303 316 317 313 313 309 303 299 295 294 297 298 300 300 299 298 299 298 296 294 291 289
Height
5874 5873 5873 5873 5873 5872 5872 5873 5872 5872 5871 5871 5870 5871 5871 5872 5872 5873 5874 5875 5876 5876 5877 5878 5880 5881 5881 5882 5883 5885 5885 5886 5887 5887 5889 5889 5890 5890 5891 5891 5892 5892 5892
5875 5874 5874 5874 5874 5873 5873 5873 5873 5873 5873 5872 5872 5872 5873 5873 5874 5875 5875 5876 5877 5878 5879 5880 5881 5882 5883 5884 5885 5886 5886 5887 5888 5888 5889 5890 5890 5890 5891 5892 5892 5892 5893
5876 5875 5875 5875 5875 5874 5874 5874 5874 5874 5874 5874 5873 5874 5874 5875 5875 5876 5877 5878 5879 5880 5881 5881 5882 5883 5884 5885 5886 5886 5887 5888 5889 5889 5890 5890 5890 5891 5891 5891 5892 5892 5893
5877 5877 5876 5876 5875 5875 5875 5875 5875 5875 5875 5875 5875 5875 5875 5876 5876 5877 5878 5879 5880 5881 5882 5883 5884 5885 5885 5886 5887 5887 5888 5889 5889 5890 5890 5891 5891 5891 5891 5891 5892 5892 5893
5878 5878 5877 5877 5876 5876 5876 5876 5876 5876 5876 5876 5876 5876 5877 5877 5877 5879 5879 5880 5881 5882 5883 5884 5885 5886 5886 5887 5888 5888 5889 5889 5890 5890 5891 5891 5891 5891 5891 5892 5892 5892 5892
5880 5879 5879 5878 5877 5877 5877 5877 5877 5877 5877 5877 5877 5878 5878 5879 5879 5880 5881 5881 5882 5883 5884 5885 5886 5886 5887 5887 5888 5889 5890 5890 5890 5891 5891 5891 5891 5891 5891 5891 5892 5892 5892
5881 5881 5880 5879 5879 5878 5878 5878 5878 5878 5879 5879 5879 5879 5879 5880 5880 5881 5882 5882 5883 5884 5885 5886 5886 5887 5887 5888 5889 5890 5890 5890 5891 5891 5891 5891 5891 5891 5891 5891 5891 5891 5892
5883 5882 5881 5880 5880 5879 5879 5879 5879 5880 5880 5880 5880 5880 5880 5880 5880 5881 5882 5883 5884 5884 5885 5886 5887 5887 5888 5889 5889 5890 5890 5891 5891 5891 5891 5891 5891 5891 5891 5891 5891 5891 5891
5884 5883 5882 5881 5881 5881 5880 5880 5880 5881 5881 5881 5881 5881 5881 5882 5882 5882 5883 5884 5885 5885 5886 5887 5887 5888 5888 5889 5889 5890 5890 5891 5891 5891 5891 5891 5891 5891 5891 5890 5890 5890 5890
5885 5884 5883 5882 5882 5882 5881 5882 5882 5882 5882 5882 5882 5882 5882 5883 5883 5884 5884 5885 5885 5886 5887 5887 5888 5888 5889 5889 5890 5890 5890 5891 5891 5891 5891 5891 5890 5890 5890 5890 5890 5889 5889
5886 5885 5884 5884 5883 5883 5883 5883 5883 5883 5883 5883 5883 5883 5883 5883 5884 5884 5885 5885 5886 5887 5887 5887 5888 5889 5889 5889 5890 5890 5890 5890 5890 5890 5890 5890 5890 5890 5890 5889 5889 5889 5889
5888 5887 5887 5886 5885 5885 5885 5885 5885 5885 5884 5884 5884 5884 5883 5884 5884 5885 5886 5886 5886 5887 5887 5887 5888 5889 5889 5889 5890 5890 5890 5890 5890 5890 5890 5890 5890 5889 5889 5889 5889 5889 5888
5890 5889 5888 5888 5887 5886 5886 5886 5886 5886 5886 5885 5885 5885 5884 5885 5885 5886 5886 5887 5887 5886 5886 5887 5888 5889 5889 5889 5890 5890 5890 5890 5890 5890 5890 5890 5889 5889 5889 5889 5888 5888 5888
5892 5891 5890 5889 5889 5888 5888 5887 5887 5887 5887 5887 5886 5886 5886 5886 5886 5886 5887 5887 5887 5887 5887 5888 5888 5889 5889 5890 5890 5890 5890 5890 5890 5889 5889 5889 5888 5888 5888 5887 5887 5887 5886
5893 5893 5892 5891 5890 5890 5889 5889 5888 5888 5888 5888 5887 5887 5887 5887 5887 5887 5887 5887 5887 5888 5888 5888 5889 5889 5889 5889 5890 5890 5890 5889 5889 5889 5888 5888 5887 5887 5887 5886 5886 5885 5885
5895 5894 5893 5893 5892 5891 5891 5890 5890 5890 5889 5889 5889 5888 5888 5888 5888 5888 5887 5887 5888 5888 5888 5889 5889 5889 5889 5889 5889 5889 5889 5889 5889 5888 5888 5887 5887 5886 5885 5885 5884 5884 5883
5897 5896 5895 5894 5893 5893 5892 5892 5891 5891 5890 5890 5890 5889 5889 5888 5888 5888 5888 5888 5888 5889 5889 5889 5889 5889 5889 5889 5889 5889 5888 5888 5888 5887 5887 5886 5885 5885 5884 5884 5883 5882 5881
5898 5897 5897 5896 5895 5895 5894 5893 5893 5892 5892 5891 5891 5890 5890 5889 5889 5889 5889 5889 5889 5889 5889 5889 5889 5889 5889 5889 5888 5888 5888 5887 5887 5886 5886 5885 5884 5883 5883 5882 5881 5880 5879
5900 5899 5898 5898 5897 5896 5895 5895 5894 5894 5893 5892 5892 5891 5891 5890 5890 5890 5890 5890 5889 5889 5889 5889 5889 5889 5888 5888 5887 5887 5887 5886 5886 5885 5884 5883 5883 5882 5881 5880 5879 5878 5877
5902 5901 5900 5899 5898 5898 5897 5896 5895 5895 5894 5893 5893 5892 5892 5891 5891 5891 5890 5890 5890 5890 5890 5889 5889 5889 5888 5887 5887 5887 5886 5885 5885 5884 5883 5882 5881 5880 5879 5878 5877 5876 5875
5904 5903 5902 5901 5900 5899 5898 5898 5897 5896 5895 5894 5894 5893 5893 5892 5892 5891 5891 5890 5890 5890 5889 5889 5889 5888 5887 5887 5886 5886 5885 5884 5884 5883 5882 5881 5879 5878 5877 5876 5875 5874 5873
5905 5904 5903 5902 5901 5900 5899 5899 5898 5897 5896 5895 5894 5893 5893 5893 5892 5892 5891 5891 5890 5890 5889 5889 5888 5887 5886 5886 5886 5885 5884 5884 5882 5882 5880 5879 5878 5877 5875 5874 5873 5872 5870
5906 5905 5904 5903 5902 5901 5900 5899 5899 5898 5897 5896 5895 5894 5893 5893 5892 5891 5891 5890 5890 5889 5889 5888 5887 5886 5885 5885 5884 5884 5883 5882 5881 5880 5879 5877 5876 5875 5873 5872 5871 5869 5868
5907 5905 5905 5904 5903 5902 5901 5900 5899 5898 5897 5896 5895 5894 5893 5892 5892 5891 5890 5889 5889 5888 5887 5886 5886 5885 5884 5883 5883 5882 5882 5881 5880 5878 5877 5875 5874 5873 5871 5870 5868 5867 5865
5907 5906 5905 5904 5903 5902 5900 5899 5898 5898 5897 5896 5895 5894 5893 5892 5891 5890 5889 5888 5887 5887 5886 5885 5884 5883 5882 5882 5881 5880 5879 5878 5877 5876 5875 5873 5872 5870 5868 5867 5866 5864 5862
5906 5906 5905 5904 5903 5902 5901 5899 5898 5897 5896 5895 5894 5893 5892 5891 5890 5888 5888 5886 5886 5885 5884 5883 5882 5881 5880 5880 5879 5878 5877 5876 5875 5874 5872 5871 5869 5868 5866 5864 5863 5861 5859